Temp
14 14 12 12 10 9 8 7 6 6 6 5 4 4 3 2 1 0 0 -0 -0 -1
13 12 11 10 9 8 6 6 6 6 4 4 3 3 2 1 0 -0 -1 -1 -2 -2
12 11 9 8 7 6 6 6 5 4 4 3 2 1 0 -0 -1 -1 -2 -2 -2 -3
9 8 8 7 7 6 5 4 3 3 3 2 1 -0 -1 -1 -2 -2 -3 -3 -3 -3
7 7 7 6 5 5 4 3 3 2 1 0 -1 -1 -2 -2 -3 -3 -4 -4 -4 -4
7 6 6 5 4 3 3 2 1 1 0 -1 -2 -2 -3 -3 -4 -4 -5 -5 -5 -5
6 5 4 4 3 2 2 1 0 -0 -1 -2 -3 -3 -3 -4 -4 -5 -5 -6 -6 -6
4 4 3 2 2 1 1 0 -0 -1 -2 -3 -3 -4 -4 -5 -5 -6 -6 -6 -7 -7
3 2 2 1 1 0 -0 -1 -1 -2 -2 -3 -4 -5 -5 -6 -6 -6 -7 -7 -7 -7
2 1 1 0 -0 -1 -1 -1 -2 -2 -3 -4 -5 -6 -6 -6 -6 -7 -7 -7 -8 -8
2 1 -0 -0 -1 -1 -2 -2 -3 -3 -4 -5 -5 -6 -6 -7 -7 -7 -7 -7 -8 -8
1 0 -1 -1 -2 -2 -2 -3 -4 -4 -5 -5 -6 -6 -6 -7 -7 -7 -7 -7 -7 -8
0 -0 -1 -1 -2 -3 -3 -4 -4 -5 -5 -6 -6 -6 -7 -7 -7 -7 -7 -8 -8 -8
-0 -0 -1 -2 -2 -3 -3 -4 -5 -5 -5 -6 -6 -6 -7 -7 -7 -7 -7 -7 -8 -8
Height
878 880 883 886 889 892 894 894 896 896 897 898 899 898 897 896 896 896 894 893 891 889
876 878 881 885 888 890 893 896 897 898 898 898 900 899 898 897 896 895 894 891 890 887
874 877 880 884 888 892 894 895 897 897 898 899 900 899 899 898 897 895 893 891 889 887
873 878 882 885 889 892 894 896 897 899 899 900 900 900 899 898 897 895 894 891 888 885
874 879 883 887 891 893 894 896 898 900 900 900 901 900 899 898 897 895 892 889 886 884
876 881 884 888 891 893 895 898 899 900 900 900 901 900 899 898 895 892 890 887 885 882
878 882 886 890 892 895 897 899 899 900 901 901 900 899 898 895 893 891 888 885 883 880
880 884 888 890 893 896 897 899 899 900 900 900 899 898 896 894 892 889 887 885 882 879
882 885 889 892 894 896 898 898 898 899 899 899 898 897 895 894 892 889 886 883 881 878
884 888 891 893 895 897 898 898 899 899 899 898 898 897 895 893 890 888 885 883 880 878
885 888 891 892 894 896 897 898 898 898 898 898 898 897 895 892 890 887 885 882 880 877
885 888 890 892 893 896 897 897 896 897 898 897 896 895 894 891 889 886 884 882 879 876
885 888 890 892 894 896 897 897 897 897 897 896 896 895 893 891 888 885 883 880 877 874
887 889 891 893 894 896 897 897 897 896 896 895 895 894 892 890 887 884 881 878 875 872
Wind_Speed
15 12 12 13 14 11 10 10 10 9 8 7 5 7 8 9 10 11 13 13 14 14
11 10 10 14 16 15 15 15 10 6 6 7 7 7 9 10 11 12 13 13 13 12
14 13 16 19 20 18 15 10 5 7 7 7 6 7 8 10 11 12 13 13 12 13
21 21 23 24 20 15 9 6 7 6 5 5 6 7 8 9 11 12 13 13 14 14
29 27 24 20 15 9 6 8 6 4 5 6 6 6 8 10 11 13 15 16 15 13
28 24 20 15 10 9 8 6 7 6 7 6 6 7 8 10 13 15 16 15 14 14
25 20 16 14 12 9 8 8 8 7 7 6 6 7 10 14 16 16 16 15 14 13
23 19 17 14 11 10 10 10 9 8 5 4 6 9 12 14 15 16 17 14 14 13
22 19 15 13 12 12 12 10 8 6 4 4 7 9 10 13 17 15 14 14 15 14
20 17 14 14 13 13 11 9 7 5 3 5 7 8 10 11 17 13 13 13 14 13
17 16 15 14 13 11 8 6 6 4 3 5 6 7 9 12 15 12 12 12 12 14
15 15 15 15 13 10 6 5 5 4 2 3 6 6 9 13 15 12 14 13 14 14
14 13 14 14 12 8 5 5 5 3 1 3 4 8 10 11 14 12 13 13 13 14
12 11 12 13 10 7 6 5 6 3 2 3 4 9 10 11 12 13 14 14 16 16
Wind_Direction
216 230 214 207 188 170 160 150 124 104 85 60 51 54 50 48 47 36 26 14 3 353
200 199 184 162 162 156 134 117 109 78 31 74 50 46 47 46 41 27 17 10 5 357
167 161 153 154 144 131 123 120 57 65 71 49 51 53 45 43 33 17 13 6 1 355
144 140 137 132 130 130 114 82 74 71 52 64 72 64 47 37 23 12 3 360 355 351
134 133 129 125 115 109 93 94 78 71 87 98 80 59 45 32 15 5 357 352 351 353
130 129 123 119 113 100 103 98 110 114 112 104 82 56 38 18 7 0 355 352 345 339
127 124 119 116 114 109 105 118 124 130 119 98 70 41 19 7 359 358 356 353 351 351
125 124 122 121 119 116 123 126 131 135 118 85 41 24 8 4 3 354 353 356 355 348
129 126 125 123 122 126 127 127 127 124 102 56 28 15 10 2 358 353 355 352 351 352
129 126 127 127 127 121 119 119 120 112 71 34 21 12 8 357 354 355 352 350 349 345
132 131 132 131 124 118 117 114 124 116 69 26 8 4 357 352 357 357 358 353 345 341
140 140 140 136 132 125 118 130 139 129 58 358 356 359 350 350 354 351 353 347 350 339
147 144 144 142 137 128 113 128 154 138 30 7 21 2 353 350 347 343 339 337 336 340
145 140 147 148 145 132 118 128 153 137 71 44 16 1 355 348 342 342 335 335 335 336